Location: Ferchesar
(52.6477°N, 12.4298°E)
Time: 13:06:50
(UTC+01:00)

Altair - Pass Details

Date: 09 December 2021
Orbit: 1501 x 1683 km, 47.2° (Epoch: 20 January)

Event Time Altitude Azimuth Distance (km) Brightness Sun altitude
Rises 18:22:11 0° 274° (W) 4,739 11.5 -20.9°
Reaches altitude 10° 18:25:20 10° 271° (W) 3,731 10.6 -21.3°
Maximum altitude 18:34:24 57° 196° (SSW) 1,742 7.8 -22.7°
Enters shadow 18:40:17 23° 128° (SE) 2,751 8.4 -23.6°
